Location: Alafon
(8.4500°N, 4.2333°E)
Time: 21:59:42
(UTC+00:00)

Vanguard 2 - Pass Details

Date: 12 August 2021
Orbit: 553 x 2937 km, 32.9° (Epoch: 26 September)

Event Time Altitude Azimuth Distance (km) Brightness Sun altitude
Rises 05:27:31 0° 335° (NNW) 2,734 10.3 -2.8°
Reaches altitude 10° 05:31:05 10° 10° (N) 1,984 10.0 -1.9°
Maximum altitude 05:32:43 12° 32° (NNE) 1,970 10.4 -1.5°
Drops below altitude 10° 05:34:30 10° 53° (NE) 2,219 11.4 -1.1°
Sets 05:39:14 0° 85° (E) 3,592 13.4 0.0°
